North Myrtle Beach, SC

2:23 AM EDT on August 27, 2016 (GMT -0400)
Grand Strand

Weather History for KCRE - April, 2014

Change the Weather History Date:

Thursday, April 24, 2014

  Actual Average Record
Temperature  
Mean Temperature 56 °F 64 °F  
Max Temperature 68 °F 74 °F 86 °F (1950)
Min Temperature 44 °F 54 °F 35 °F (1993)
Degree Days  
Heating Degree Days 9 3  
Month to date heating degree days 105 126  
Since 1 July heating degree days 2577 2408  
Cooling Degree Days 0 2  
Month to date cooling degree days 16 25  
Year to date cooling degree days 16 28  
Growing Degree Days 5 (Base 50)    
Moisture  
Dew Point 46 °F    
Average Humidity 63    
Maximum Humidity 89    
Minimum Humidity 37    
Precipitation  
Precipitation 0.00 in 0.09 in 0.01 in (2001)
Month to date precipitation 1.98 2.43  
Year to date precipitation 10.84 13.46  
Sea Level Pressure  
Sea Level Pressure 30.04 in    
Wind  
Wind Speed 8 mph (ENE)    
Max Wind Speed 16 mph    
Max Gust Speed 20 mph    
Visibility 10 miles    
Events      
T = Trace of Precipitation, MM = Missing Value Source: NWS Daily Summary

Daily Weather History Graph

Daily Weather History Graph

Search for Another Location

Airport or City:

Trip Planner

Search our weather history database for the weather conditions in past years. The results will help you decide how hot, cold, wet, or windy it might be!

Date:

Astronomy

Apr. 24, 2014 Rise Set
Actual Time 6:33 AM EDT 7:52 PM EDT
Civil Twilight 6:07 AM EDT 8:19 PM EDT
Nautical Twilight 5:36 AM EDT 8:50 PM EDT
Astronomical Twilight 5:03 AM EDT 9:23 PM EDT
Moon 3:28 AM EDT (4/24) 3:19 PM EDT (4/24)
Length of Visible Light 14h 11m
Length of Day
13h 19m
Waning Crescent, 24% of the Moon is Illuminated
Apr 24
Waning Crescent
Apr 29
New
May 6
First Quarter
May 14
Full
May 21
Last Quarter

Hourly Weather History & Observations

Time (EDT) Temp. Windchill Dew Point Humidity Pressure Visibility Wind Dir Wind Speed Gust Speed Precip Events Conditions
12:53 AM 53.1 °F - 46.9 °F 80% 29.96 in 10.0 mi Calm Calm - N/A   Clear
1:53 AM 50.0 °F - 46.0 °F 86% 29.98 in 10.0 mi Calm Calm - N/A   Clear
2:53 AM 48.0 °F - 43.0 °F 83% 29.98 in 10.0 mi Calm Calm - N/A   Clear
3:53 AM 44.1 °F 42.5 °F 41.0 °F 89% 29.98 in 10.0 mi North 3.5 mph - N/A   Clear
4:53 AM 51.1 °F - 41.0 °F 68% 30.00 in 10.0 mi NNE 9.2 mph - N/A   Clear
5:53 AM 51.1 °F - 39.9 °F 66% 30.02 in 10.0 mi NNE 8.1 mph - N/A   Clear
6:53 AM 48.9 °F - 39.9 °F 71% 30.06 in 10.0 mi NNE 6.9 mph - N/A   Clear
7:53 AM 54.0 °F - 42.1 °F 64% 30.08 in 10.0 mi NNE 10.4 mph - N/A   Clear
8:53 AM 60.1 °F - 44.1 °F 55% 30.10 in 10.0 mi NE 11.5 mph - N/A   Clear
9:53 AM 64.0 °F - 42.1 °F 45% 30.11 in 10.0 mi NNE 12.7 mph - N/A   Clear
10:53 AM 66.9 °F - 39.0 °F 36% 30.12 in 10.0 mi NE 8.1 mph - N/A   Clear
11:53 AM 66.9 °F - 42.1 °F 40% 30.12 in 10.0 mi ESE 9.2 mph - N/A   Clear
12:53 PM 66.9 °F - 46.0 °F 47% 30.10 in 10.0 mi East 12.7 mph - N/A   Clear
1:53 PM 66.9 °F - 46.9 °F 49% 30.09 in 10.0 mi East 13.8 mph - N/A   Clear
2:53 PM 66.0 °F - 48.0 °F 52% 30.06 in 10.0 mi ESE 10.4 mph - N/A   Clear
3:53 PM 64.9 °F - 48.0 °F 54% 30.04 in 10.0 mi SE 11.5 mph - N/A   Clear
4:53 PM 64.9 °F - 48.0 °F 54% 30.03 in 10.0 mi ESE 8.1 mph - N/A   Partly Cloudy
5:53 PM 64.9 °F - 48.0 °F 54% 30.03 in 10.0 mi Variable 6.9 mph - N/A   Clear
6:53 PM 63.0 °F - 50.0 °F 63% 30.03 in 10.0 mi ESE 8.1 mph - N/A   Clear
7:53 PM 61.0 °F - 53.1 °F 75% 30.04 in 10.0 mi East 4.6 mph - N/A   Clear
8:53 PM 60.1 °F - 54.0 °F 80% 30.04 in 10.0 mi ENE 3.5 mph - N/A   Mostly Cloudy
9:53 PM 62.1 °F - 55.0 °F 78% 30.04 in 10.0 mi East 6.9 mph - N/A   Partly Cloudy
10:53 PM 62.1 °F - 55.0 °F 78% 30.02 in 10.0 mi East 8.1 mph - N/A   Clear
11:53 PM 62.1 °F - 55.9 °F 80% 30.02 in 10.0 mi East 6.9 mph - N/A   Clear